Weather History for BGDH - February, 2014

Change the Weather History Date:

Thursday, February 27, 2014

  Actual Average Record
Temperature  
Mean Temperature -10 °F -  
Max Temperature -4 °F - - ()
Min Temperature -17 °F - - ()
Degree Days  
Heating Degree Days 76    
Moisture  
Dew Point -18 °F    
Average Humidity 55    
Maximum Humidity 64    
Minimum Humidity 47    
Precipitation  
Precipitation 0.00 in - - ()
Sea Level Pressure  
Sea Level Pressure 30.31 in    
Wind  
Wind Speed 3 mph ()    
Max Wind Speed 8 mph    
Max Gust Speed -    
T = Trace of Precipitation, MM = Missing Value Source: Averaged Metar Reports

Daily Weather History Graph

Daily Weather History Graph

Search for Another Location

Airport or City:

Trip Planner

Search our weather history database for the weather conditions in past years. The results will help you decide how hot, cold, wet, or windy it might be!

Date:

Astronomy

Feb. 27, 2014 Rise Set
Actual Time 6:42 AM WGT 2:14 PM WGT
Civil Twilight 5:04 AM WGT 3:53 PM WGT
Nautical Twilight 3:19 AM WGT 5:39 PM WGT
Astronomical Twilight 1:17 AM WGT 7:44 PM WGT
Moon 7:19 AM WGT (2/27) 10:29 AM WGT (2/27)
Length of Visible Light 10h 48m
Length of Day
7h 32m
Waning Crescent, 4% of the Moon is Illuminated
Feb 27
Waning Crescent
Mar 1
New
Mar 8
First Quarter
Mar 16
Full
Mar 23
Last Quarter

Hourly Weather History & Observations

Time (WGT) Temp. Dew Point Humidity Pressure Visibility Wind Dir Wind Speed Gust Speed Precip Events Conditions
12:00 AM -4 °F -14 °F 47% 30.28 in 31 mi NE 3.5 mph - -   Clear
1:00 AM -3 °F -13 °F 48% 30.28 in 31 mi NNE 3.5 mph - -   Mostly Cloudy
2:00 AM -6 °F -15 °F 49% 30.29 in 31 mi NNW 8.1 mph - -  
3:00 AM -5 °F -14 °F 50% 30.29 in 31 mi NNE 1.2 mph - -   Clear
4:00 AM -7 °F -16 °F 48% 30.30 in 31 mi NNW 4.6 mph - -   Mostly Cloudy
5:00 AM -8 °F -16 °F 54% 30.30 in 31 mi WNW 2.3 mph - -   Mostly Cloudy
6:00 AM -8 °F -15 °F 58% 30.31 in 31 mi NNW 4.6 mph - -   Partly Cloudy
7:00 AM -13 °F -21 °F 52% 30.32 in 31 mi NW 2.3 mph - -  
8:00 AM -7 °F -14 °F 60% 30.32 in 31 mi North 5.8 mph - -   Scattered Clouds
9:00 AM -8 °F -16 °F 52% 30.32 in 31 mi West 3.5 mph - -  
10:00 AM -16 °F -23 °F 55% 30.32 in 25 mi NE 1.2 mph - -  
11:00 AM -14 °F -20 °F 62% 30.32 in 31 mi WNW 1.2 mph - -  
12:00 PM -14 °F -21 °F 56% 30.33 in 31 mi SSW 1.2 mph - -  
1:00 PM -15 °F -22 °F 56% 30.32 in 31 mi East 1.2 mph - -   Mostly Cloudy
2:00 PM -11 °F -19 °F 53% 30.33 in 31 mi Calm Calm - -   Mostly Cloudy
3:00 PM -11 °F -18 °F 60% 30.32 in 31 mi NW 2.3 mph - -   Mostly Cloudy
4:00 PM -14 °F -21 °F 56% 30.33 in 31 mi WNW 2.3 mph - -   Mostly Cloudy
5:00 PM -9 °F -18 °F 51% 30.33 in 31 mi NNW 4.6 mph - -   Mostly Cloudy
6:00 PM -17 °F -24 °F 57% 30.33 in 31 mi Calm Calm - -   Mostly Cloudy
7:00 PM -17 °F -23 °F 58% 30.33 in 31 mi Calm Calm - -   Mostly Cloudy
8:00 PM -14 °F -20 °F 61% 30.32 in 31 mi Calm Calm - -   Mostly Cloudy
9:00 PM -13 °F -19 °F 64% 30.32 in 31 mi NNW 1.2 mph - -   Scattered Clouds
10:00 PM -13 °F -21 °F 54% 30.31 in 31 mi NW 2.3 mph - -   Scattered Clouds
11:00 PM -10 °F -18 °F 53% 30.30 in 31 mi NNW 1.2 mph - -   Mostly Cloudy